Location: Bannatyne
(13.0833°N, 59.5333°W)
Time: 05:36:42
(UTC+00:00)

Vanguard 3 - Pass Details

Date: 29 January 2020
Orbit: 508 x 3263 km, 33.3° (Epoch: 19 February)

Event Time Altitude Azimuth Distance (km) Brightness Sun altitude
Rises 01:13:16 0° 302° (WNW) 7,126 12.4 -47.0°
Reaches altitude 10° 01:18:50 10° 308° (NW) 5,901 11.8 -48.3°
Enters shadow 01:29:53 36° 336° (NNW) 3,495 10.2 -50.9°
Maximum altitude 01:35:02 46° 17° (NNE) 2,772 - -52.2°
Drops below altitude 10° 01:44:52 10° 88° (E) 3,708 - -54.5°
Sets 01:47:29 0° 95° (E) 4,376 - -55.1°
